Time,TemperatureF,DewpointF,PressureIn,WindDirection,WindDirectionDegrees,WindSpeedMPH,WindSpeedGustMPH,Humidity,HourlyPrecipIn,Conditions,Clouds,dailyrainin,SolarRadiationWatts/m^2,SoftwareType,DateUTC
2013-02-27 00:00:00,45.5,38.4,30.15,South,180,0.0,0.0,76,0.00,,,0.00,0.00,VWS V14.01,2013-02-27 08:00:00,
2013-02-27 00:05:00,45.5,38.4,30.15,SW,225,0.0,0.0,76,0.00,,,0.00,0.00,VWS V14.01,2013-02-27 08:05:00,
2013-02-27 00:10:00,45.3,38.5,30.15,South,180,0.0,0.0,77,0.00,,,0.00,0.00,VWS V14.01,2013-02-27 08:10:00,
2013-02-27 00:15:00,45.3,38.9,30.15,SSW,202,0.0,0.0,78,0.00,,,0.00,0.00,VWS V14.01,2013-02-27 08:15:00,
2013-02-27 00:20:00,45.7,38.9,30.15,SSW,202,1.1,2.5,77,0.00,,,0.00,0.00,VWS V14.01,2013-02-27 08:20:00,
2013-02-27 00:25:00,45.7,38.9,30.15,SSW,202,1.1,2.5,77,0.00,,,0.00,0.00,VWS V14.01,2013-02-27 08:25:00,
2013-02-27 00:30:00,45.3,38.5,30.15,SSW,202,1.3,1.6,77,0.00,,,0.00,0.00,VWS V14.01,2013-02-27 08:30:00,
2013-02-27 00:35:00,45.5,38.4,30.15,SSW,202,1.3,2.5,76,0.00,,,0.00,0.00,VWS V14.01,2013-02-27 08:35:00,
2013-02-27 00:40:00,45.5,38.4,30.15,SSW,202,0.0,2.5,76,0.00,,,0.00,0.00,VWS V14.01,2013-02-27 08:40:00,
2013-02-27 00:45:00,45.5,38.7,30.15,SSW,202,0.0,0.0,77,0.00,,,0.00,0.00,VWS V14.01,2013-02-27 08:45:00,
2013-02-27 00:50:00,45.1,38.0,30.15,SSW,202,0.0,0.0,76,0.00,,,0.00,0.00,VWS V14.01,2013-02-27 08:50:00,
2013-02-27 00:55:00,44.8,38.0,30.15,SSW,202,1.1,2.0,77,0.00,,,0.00,0.00,VWS V14.01,2013-02-27 08:55:00,
2013-02-27 01:00:00,44.8,38.0,30.15,South,180,0.0,0.0,77,0.00,,,0.00,0.00,VWS V14.01,2013-02-27 09:00:00,
2013-02-27 01:05:00,45.0,38.5,30.15,South,180,0.0,0.0,78,0.00,,,0.00,0.00,VWS V14.01,2013-02-27 09:05:00,
2013-02-27 01:10:00,44.8,38.0,30.15,SSW,202,2.5,2.7,77,0.00,,,0.00,0.00,VWS V14.01,2013-02-27 09:10:00,
2013-02-27 01:15:00,45.0,38.5,30.15,SW,225,2.5,2.5,78,0.00,,,0.00,0.00,VWS V14.01,2013-02-27 09:15:00,
2013-02-27 01:20:00,45.1,39.0,30.15,SSW,202,1.6,2.5,79,0.00,,,0.00,0.00,VWS V14.01,2013-02-27 09:20:00,
2013-02-27 01:25:00,45.1,38.7,30.15,SSW,202,0.0,2.5,78,0.00,,,0.00,0.00,VWS V14.01,2013-02-27 09:25:00,
2013-02-27 01:30:00,45.3,38.9,30.15,SSW,202,0.0,0.9,78,0.00,,,0.00,0.00,VWS V14.01,2013-02-27 09:30:00,
2013-02-27 01:35:00,45.1,39.0,30.15,SSW,202,0.0,1.6,79,0.00,,,0.00,0.00,VWS V14.01,2013-02-27 09:35:00,
2013-02-27 01:40:00,44.8,38.3,30.15,SSW,202,0.0,1.6,78,0.00,,,0.00,0.00,VWS V14.01,2013-02-27 09:40:00,
2013-02-27 01:45:00,43.7,40.7,30.15,SSW,202,0.0,2.0,89,0.00,,,0.00,0.00,VWS V14.01,2013-02-27 09:45:00,
2013-02-27 01:46:00,44.6,38.5,30.15,SSW,202,0.0,0.0,79,0.00,,,0.00,0.00,VWS V14.01,2013-02-27 09:46:00,
2013-02-27 01:51:00,44.4,39.3,30.15,SSW,202,1.6,2.0,82,0.00,,,0.00,0.00,VWS V14.01,2013-02-27 09:51:00,
2013-02-27 01:56:00,44.4,39.6,30.15,SSW,202,0.0,2.0,83,0.00,,,0.00,0.00,VWS V14.01,2013-02-27 09:56:00,
2013-02-27 02:00:00,43.5,40.2,30.15,SSW,202,0.0,2.0,88,0.00,,,0.00,0.00,VWS V14.01,2013-02-27 10:00:00,
2013-02-27 02:01:00,44.4,40.5,30.15,SSW,202,0.0,0.0,86,0.00,,,0.00,0.00,VWS V14.01,2013-02-27 10:01:00,
2013-02-27 02:06:00,44.4,40.5,30.15,SSW,202,0.0,0.0,86,0.00,,,0.00,0.00,VWS V14.01,2013-02-27 10:06:00,
2013-02-27 02:11:00,44.2,40.6,30.15,SSW,202,0.0,0.0,87,0.00,,,0.00,0.00,VWS V14.01,2013-02-27 10:11:00,
2013-02-27 02:15:00,43.5,39.9,30.15,SSW,202,0.0,0.0,87,0.00,,,0.00,0.00,VWS V14.01,2013-02-27 10:15:00,
2013-02-27 02:16:00,44.2,40.0,30.15,SSW,202,0.0,0.0,85,0.00,,,0.00,0.00,VWS V14.01,2013-02-27 10:16:00,
2013-02-27 02:21:00,44.2,40.6,30.15,SSW,202,0.0,0.0,87,0.00,,,0.00,0.00,VWS V14.01,2013-02-27 10:21:00,
2013-02-27 02:26:00,44.1,40.5,30.15,SSW,202,0.0,0.0,87,0.00,,,0.00,0.00,VWS V14.01,2013-02-27 10:26:00,
2013-02-27 02:30:00,43.5,39.9,30.15,SSW,202,2.0,2.7,87,0.00,,,0.00,0.00,VWS V14.01,2013-02-27 10:30:00,
2013-02-27 02:31:00,44.1,40.7,30.15,SSW,202,1.1,1.3,88,0.00,,,0.00,0.00,VWS V14.01,2013-02-27 10:31:00,
2013-02-27 02:36:00,44.1,40.7,30.15,SSW,202,0.0,2.0,88,0.00,,,0.00,0.00,VWS V14.01,2013-02-27 10:36:00,
2013-02-27 02:41:00,43.9,40.8,30.15,SSW,202,0.9,2.0,89,0.00,,,0.00,0.00,VWS V14.01,2013-02-27 10:41:00,
2013-02-27 02:45:00,43.3,40.0,30.15,SSW,202,0.0,2.7,88,0.00,,,0.00,0.00,VWS V14.01,2013-02-27 10:45:00,
2013-02-27 02:46:00,43.5,40.5,30.15,SSW,202,0.0,2.0,89,0.00,,,0.00,0.00,VWS V14.01,2013-02-27 10:46:00,
2013-02-27 02:51:00,43.5,40.5,30.15,SSW,202,0.0,2.0,89,0.00,,,0.00,0.00,VWS V14.01,2013-02-27 10:51:00,
2013-02-27 02:56:00,43.5,40.5,30.15,SSW,202,0.0,2.0,89,0.00,,,0.00,0.00,VWS V14.01,2013-02-27 10:56:00,
2013-02-27 03:00:00,43.3,40.3,30.15,SSW,202,2.2,2.5,89,0.00,,,0.00,0.00,VWS V14.01,2013-02-27 11:00:00,
2013-02-27 03:01:00,43.5,40.2,30.15,SSW,202,0.0,0.0,88,0.00,,,0.00,0.00,VWS V14.01,2013-02-27 11:01:00,
2013-02-27 03:07:00,43.7,40.1,30.15,SSW,202,0.0,0.0,87,0.00,,,0.00,0.00,VWS V14.01,2013-02-27 11:07:00,
2013-02-27 03:12:00,43.7,40.1,30.15,SSW,202,0.0,0.0,87,0.00,,,0.00,0.00,VWS V14.01,2013-02-27 11:12:00,
2013-02-27 03:15:00,43.0,40.2,30.15,SSW,202,0.0,2.2,90,0.00,,,0.00,0.00,VWS V14.01,2013-02-27 11:15:00,
2013-02-27 03:17:00,43.5,39.9,30.15,SSW,202,0.0,0.0,87,0.00,,,0.00,0.00,VWS V14.01,2013-02-27 11:17:00,
2013-02-27 03:22:00,43.5,40.2,30.15,SSW,202,0.0,0.0,88,0.00,,,0.00,0.00,VWS V14.01,2013-02-27 11:22:00,
2013-02-27 03:27:00,43.7,40.1,30.15,SW,225,2.2,2.7,87,0.00,,,0.00,0.00,VWS V14.01,2013-02-27 11:27:00,
2013-02-27 03:30:00,43.0,40.2,30.15,SSW,202,0.0,0.0,90,0.00,,,0.00,0.00,VWS V14.01,2013-02-27 11:30:00,
2013-02-27 03:32:00,43.5,39.9,30.15,SW,225,2.7,2.7,87,0.00,,,0.00,0.00,VWS V14.01,2013-02-27 11:32:00,
2013-02-27 03:37:00,43.7,40.4,30.15,SSW,202,2.0,2.7,88,0.00,,,0.00,0.00,VWS V14.01,2013-02-27 11:37:00,
2013-02-27 03:42:00,43.5,40.2,30.15,SSW,202,2.0,2.7,88,0.00,,,0.00,0.00,VWS V14.01,2013-02-27 11:42:00,
2013-02-27 03:45:00,42.8,40.4,30.15,SSW,202,2.2,2.5,91,0.00,,,0.00,0.00,VWS V14.01,2013-02-27 11:45:00,
2013-02-27 03:47:00,43.3,40.0,30.15,SSW,202,1.6,1.6,88,0.00,,,0.00,0.00,VWS V14.01,2013-02-27 11:47:00,
2013-02-27 03:52:00,43.5,40.5,30.15,SSW,202,2.0,2.5,89,0.00,,,0.00,0.00,VWS V14.01,2013-02-27 11:52:00,
2013-02-27 03:57:00,43.5,40.5,30.15,SSW,202,0.0,2.5,89,0.00,,,0.00,0.00,VWS V14.01,2013-02-27 11:57:00,
2013-02-27 04:00:00,42.8,40.9,30.15,SSW,202,0.0,2.5,93,0.00,,,0.00,0.00,VWS V14.01,2013-02-27 12:00:00,
2013-02-27 04:02:00,43.3,40.3,30.15,SSW,202,1.3,2.2,89,0.00,,,0.00,0.00,VWS V14.01,2013-02-27 12:02:00,
2013-02-27 04:07:00,43.3,40.6,30.15,SSW,202,0.0,2.2,90,0.00,,,0.00,0.00,VWS V14.01,2013-02-27 12:07:00,
2013-02-27 04:12:00,43.2,40.4,30.15,SSW,202,0.0,2.2,90,0.00,,,0.00,0.00,VWS V14.01,2013-02-27 12:12:00,
2013-02-27 04:15:00,43.0,41.7,30.15,SSW,202,2.5,2.7,95,0.00,,,0.00,0.00,VWS V14.01,2013-02-27 12:15:00,
2013-02-27 04:17:00,43.0,40.2,30.15,SSW,202,0.0,0.0,90,0.00,,,0.00,0.00,VWS V14.01,2013-02-27 12:17:00,
2013-02-27 04:22:00,43.2,40.4,30.15,SSW,202,0.0,0.0,90,0.00,,,0.00,0.00,VWS V14.01,2013-02-27 12:22:00,
2013-02-27 04:27:00,43.0,40.2,30.15,SSW,202,0.0,0.0,90,0.00,,,0.00,0.00,VWS V14.01,2013-02-27 12:27:00,
2013-02-27 04:30:00,43.3,42.3,30.15,SSW,202,0.0,3.1,96,0.00,,,0.00,0.00,VWS V14.01,2013-02-27 12:30:00,
2013-02-27 04:32:00,43.0,40.2,30.15,SSW,202,0.0,0.0,90,0.00,,,0.00,0.00,VWS V14.01,2013-02-27 12:32:00,
2013-02-27 04:37:00,42.8,40.1,30.15,SSW,202,2.0,2.5,90,0.00,,,0.00,0.00,VWS V14.01,2013-02-27 12:37:00,
2013-02-27 04:42:00,42.8,40.4,30.15,SSW,202,1.3,2.5,91,0.00,,,0.00,0.00,VWS V14.01,2013-02-27 12:42:00,
2013-02-27 04:45:00,43.5,42.7,30.15,SSW,202,2.5,2.5,97,0.00,,,0.00,0.00,VWS V14.01,2013-02-27 12:45:00,
2013-02-27 04:47:00,43.0,40.8,30.15,SSW,202,0.0,2.2,92,0.00,,,0.00,0.00,VWS V14.01,2013-02-27 12:47:00,
2013-02-27 04:52:00,43.0,40.8,30.15,SW,225,0.0,2.5,92,0.00,,,0.00,0.00,VWS V14.01,2013-02-27 12:52:00,
2013-02-27 04:58:00,42.8,40.9,30.15,South,180,0.0,2.5,93,0.00,,,0.00,0.00,VWS V14.01,2013-02-27 12:58:00,
2013-02-27 05:00:00,43.9,42.8,30.15,SSW,202,0.0,2.9,96,0.00,,,0.00,0.00,VWS V14.01,2013-02-27 13:00:00,
2013-02-27 05:03:00,42.8,40.9,30.15,South,180,0.0,1.6,93,0.00,,,0.00,0.00,VWS V14.01,2013-02-27 13:03:00,
2013-02-27 05:08:00,42.8,41.2,30.15,SW,225,2.7,2.7,94,0.00,,,0.00,0.00,VWS V14.01,2013-02-27 13:08:00,
2013-02-27 05:13:00,43.0,41.7,30.15,SSW,202,0.0,2.7,95,0.00,,,0.00,0.00,VWS V14.01,2013-02-27 13:13:00,
2013-02-27 05:15:00,43.3,41.7,30.15,SSW,202,0.0,1.1,94,0.00,,,0.00,0.00,VWS V14.01,2013-02-27 13:15:00,
2013-02-27 05:18:00,43.2,41.8,30.15,SSW,202,0.0,3.1,95,0.00,,,0.00,0.00,VWS V14.01,2013-02-27 13:18:00,
2013-02-27 05:23:00,43.3,42.0,30.15,South,180,1.3,3.1,95,0.00,,,0.00,0.00,VWS V14.01,2013-02-27 13:23:00,
2013-02-27 05:28:00,43.3,42.3,30.15,SSW,202,1.6,3.1,96,0.00,,,0.00,0.00,VWS V14.01,2013-02-27 13:28:00,
2013-02-27 05:30:00,43.0,41.1,30.18,SSW,202,0.0,0.0,93,0.00,,,0.00,0.00,VWS V14.01,2013-02-27 13:30:00,
2013-02-27 05:33:00,43.5,42.5,30.15,SSW,202,2.2,2.5,96,0.00,,,0.00,0.00,VWS V14.01,2013-02-27 13:33:00,
2013-02-27 05:38:00,43.3,42.5,30.15,SSW,202,0.0,2.5,97,0.00,,,0.00,0.00,VWS V14.01,2013-02-27 13:38:00,
2013-02-27 05:43:00,43.3,42.5,30.15,SSW,202,0.0,2.5,97,0.00,,,0.00,0.00,VWS V14.01,2013-02-27 13:43:00,
2013-02-27 05:45:00,42.4,40.8,30.18,SSW,202,0.0,0.0,94,0.00,,,0.00,0.00,VWS V14.01,2013-02-27 13:45:00,
2013-02-27 05:48:00,43.5,42.5,30.15,SSW,202,1.6,2.9,96,0.00,,,0.00,0.00,VWS V14.01,2013-02-27 13:48:00,
2013-02-27 05:53:00,43.5,42.5,30.15,SSW,202,0.0,2.9,96,0.00,,,0.00,0.00,VWS V14.01,2013-02-27 13:53:00,
2013-02-27 05:58:00,43.7,42.6,30.15,SSW,202,2.5,2.9,96,0.00,,,0.00,0.00,VWS V14.01,2013-02-27 13:58:00,
2013-02-27 06:00:00,43.0,41.9,30.18,WSW,248,0.0,0.0,96,0.00,,,0.00,0.00,VWS V14.01,2013-02-27 14:00:00,
2013-02-27 06:03:00,43.7,42.4,30.15,SSW,202,0.0,1.1,95,0.00,,,0.00,0.00,VWS V14.01,2013-02-27 14:03:00,
2013-02-27 06:08:00,43.5,42.2,30.15,SSW,202,0.0,1.1,95,0.00,,,0.00,0.00,VWS V14.01,2013-02-27 14:08:00,
2013-02-27 06:13:00,43.3,41.7,30.15,SSW,202,0.0,1.1,94,0.00,,,0.00,0.00,VWS V14.01,2013-02-27 14:13:00,
2013-02-27 06:15:00,43.9,43.3,30.18,SSW,202,0.0,0.0,98,0.00,,,0.00,0.00,VWS V14.01,2013-02-27 14:15:00,
2013-02-27 06:18:00,43.2,41.5,30.15,SSW,202,0.0,0.0,94,0.00,,,0.00,0.00,VWS V14.01,2013-02-27 14:18:00,
2013-02-27 06:23:00,43.2,41.5,30.15,SSW,202,0.0,0.0,94,0.00,,,0.00,0.00,VWS V14.01,2013-02-27 14:23:00,
2013-02-27 06:28:00,43.0,41.4,30.18,SSW,202,0.0,0.0,94,0.00,,,0.00,0.00,VWS V14.01,2013-02-27 14:28:00,
2013-02-27 06:30:00,44.6,43.8,30.21,SSW,202,0.0,0.0,97,0.00,,,0.00,0.00,VWS V14.01,2013-02-27 14:30:00,
2013-02-27 06:33:00,42.8,40.9,30.18,SSW,202,0.0,0.0,93,0.00,,,0.00,0.00,VWS V14.01,2013-02-27 14:33:00,
2013-02-27 06:38:00,42.4,40.8,30.18,SSW,202,0.0,0.0,94,0.00,,,0.00,0.00,VWS V14.01,2013-02-27 14:38:00,
2013-02-27 06:43:00,42.4,40.8,30.18,SSW,202,0.0,0.0,94,0.00,,,0.00,0.00,VWS V14.01,2013-02-27 14:43:00,
2013-02-27 06:45:00,45.1,44.1,30.21,SSW,202,0.0,0.0,96,0.00,,,0.00,0.00,VWS V14.01,2013-02-27 14:45:00,
2013-02-27 06:48:00,42.4,40.8,30.18,SSW,202,0.0,0.0,94,0.00,,,0.00,0.00,VWS V14.01,2013-02-27 14:48:00,
2013-02-27 06:53:00,42.6,41.6,30.18,SSW,202,0.0,0.0,96,0.00,,,0.00,0.00,VWS V14.01,2013-02-27 14:53:00,
2013-02-27 06:59:00,42.8,41.7,30.18,WSW,248,0.0,0.0,96,0.00,,,0.00,0.00,VWS V14.01,2013-02-27 14:59:00,
2013-02-27 07:00:00,45.9,44.5,30.21,SSW,202,0.0,0.0,95,0.00,,,0.00,0.00,VWS V14.01,2013-02-27 15:00:00,
2013-02-27 07:04:00,43.3,42.5,30.18,SSW,202,0.0,0.0,97,0.00,,,0.00,0.00,VWS V14.01,2013-02-27 15:04:00,
2013-02-27 07:09:00,43.5,42.7,30.18,SSW,202,0.0,0.0,97,0.00,,,0.00,0.00,VWS V14.01,2013-02-27 15:09:00,
2013-02-27 07:14:00,43.9,43.3,30.18,SSW,202,0.0,0.0,98,0.00,,,0.00,0.00,VWS V14.01,2013-02-27 15:14:00,
2013-02-27 07:15:00,46.4,44.8,30.21,SSW,202,0.0,0.0,94,0.00,,,0.00,0.00,VWS V14.01,2013-02-27 15:15:00,
2013-02-27 07:19:00,43.9,43.3,30.18,SSW,202,0.0,0.0,98,0.00,,,0.00,0.00,VWS V14.01,2013-02-27 15:19:00,
2013-02-27 07:24:00,44.2,43.4,30.18,SSW,202,0.0,0.0,97,0.00,,,0.00,0.00,VWS V14.01,2013-02-27 15:24:00,
2013-02-27 07:29:00,44.6,43.8,30.21,SSW,202,0.0,0.0,97,0.00,,,0.00,0.00,VWS V14.01,2013-02-27 15:29:00,
2013-02-27 07:30:00,47.8,45.9,30.21,NNE,22,0.0,0.0,93,0.00,,,0.00,0.00,VWS V14.01,2013-02-27 15:30:00,
2013-02-27 07:34:00,44.8,44.0,30.21,SSW,202,0.0,0.0,97,0.00,,,0.00,0.00,VWS V14.01,2013-02-27 15:34:00,
2013-02-27 07:39:00,45.0,43.9,30.21,SSW,202,0.0,0.0,96,0.00,,,0.00,0.00,VWS V14.01,2013-02-27 15:39:00,
2013-02-27 07:44:00,45.1,44.1,30.21,SSW,202,0.0,0.0,96,0.00,,,0.00,0.00,VWS V14.01,2013-02-27 15:44:00,
2013-02-27 07:45:00,48.9,46.1,30.21,East,90,0.0,2.9,90,0.00,,,0.00,0.00,VWS V14.01,2013-02-27 15:45:00,
2013-02-27 07:49:00,45.3,44.2,30.21,SSW,202,0.0,0.0,96,0.00,,,0.00,0.00,VWS V14.01,2013-02-27 15:49:00,
2013-02-27 07:54:00,45.5,44.2,30.21,SSW,202,0.0,0.0,95,0.00,,,0.00,0.00,VWS V14.01,2013-02-27 15:54:00,
2013-02-27 07:59:00,45.9,44.5,30.21,SSW,202,0.0,0.0,95,0.00,,,0.00,0.00,VWS V14.01,2013-02-27 15:59:00,
2013-02-27 08:00:00,50.4,45.4,30.21,ESE,112,0.0,1.1,83,0.00,,,0.00,0.00,VWS V14.01,2013-02-27 16:00:00,
2013-02-27 08:04:00,46.2,44.9,30.21,SSW,202,0.0,0.0,95,0.00,,,0.00,0.00,VWS V14.01,2013-02-27 16:04:00,
2013-02-27 08:09:00,46.6,45.0,30.21,SSW,202,0.0,0.0,94,0.00,,,0.00,0.00,VWS V14.01,2013-02-27 16:09:00,
2013-02-27 08:14:00,46.4,44.8,30.21,SSW,202,0.0,0.0,94,0.00,,,0.00,0.00,VWS V14.01,2013-02-27 16:14:00,
2013-02-27 08:15:00,51.8,47.1,30.21,ESE,112,0.0,0.0,84,0.00,,,0.00,0.00,VWS V14.01,2013-02-27 16:15:00,
2013-02-27 08:19:00,46.8,44.8,30.21,SSW,202,0.0,0.0,93,0.00,,,0.00,0.00,VWS V14.01,2013-02-27 16:19:00,
2013-02-27 08:24:00,46.9,45.0,30.21,SSW,202,0.0,0.0,93,0.00,,,0.00,0.00,VWS V14.01,2013-02-27 16:24:00,
2013-02-27 08:29:00,47.8,45.9,30.21,NNE,22,0.0,0.0,93,0.00,,,0.00,0.00,VWS V14.01,2013-02-27 16:29:00,
2013-02-27 08:30:00,52.3,46.7,30.21,East,90,2.0,2.9,81,0.00,,,0.00,0.00,VWS V14.01,2013-02-27 16:30:00,
2013-02-27 08:34:00,48.2,45.7,30.21,East,90,0.0,1.3,91,0.00,,,0.00,0.00,VWS V14.01,2013-02-27 16:34:00,
2013-02-27 08:39:00,48.7,46.2,30.21,East,90,2.5,2.9,91,0.00,,,0.00,0.00,VWS V14.01,2013-02-27 16:39:00,
2013-02-27 08:45:00,48.9,46.1,30.21,East,90,0.0,2.9,90,0.00,,,0.00,0.00,VWS V14.01,2013-02-27 16:45:00,
2013-02-27 08:50:00,49.6,46.8,30.21,ESE,112,0.0,1.1,90,0.00,,,0.00,0.00,VWS V14.01,2013-02-27 16:50:00,
2013-02-27 08:55:00,50.2,46.8,30.21,ESE,112,0.0,1.1,88,0.00,,,0.00,0.00,VWS V14.01,2013-02-27 16:55:00,
2013-02-27 09:00:00,50.4,45.4,30.21,ESE,112,0.0,1.1,83,0.00,,,0.00,0.00,VWS V14.01,2013-02-27 17:00:00,
2013-02-27 09:05:00,50.2,44.9,30.21,ESE,112,0.0,0.0,82,0.00,,,0.00,0.00,VWS V14.01,2013-02-27 17:05:00,
2013-02-27 09:10:00,51.3,46.9,30.21,ESE,112,0.0,0.0,85,0.00,,,0.00,0.00,VWS V14.01,2013-02-27 17:10:00,
2013-02-27 09:15:00,51.8,47.1,30.21,ESE,112,0.0,0.0,84,0.00,,,0.00,0.00,VWS V14.01,2013-02-27 17:15:00,
2013-02-27 09:20:00,51.8,47.1,30.21,ESE,112,0.9,0.9,84,0.00,,,0.00,0.00,VWS V14.01,2013-02-27 17:20:00,
2013-02-27 09:25:00,52.2,46.8,30.21,ESE,112,0.0,0.9,82,0.00,,,0.00,0.00,VWS V14.01,2013-02-27 17:25:00,
2013-02-27 09:30:00,52.3,46.7,30.21,East,90,2.0,2.0,81,0.00,,,0.00,0.00,VWS V14.01,2013-02-27 17:30:00,
2013-02-27 09:35:00,52.5,46.5,30.21,NE,45,3.1,3.4,80,0.00,,,0.00,0.00,VWS V14.01,2013-02-27 17:35:00,
2013-02-27 09:40:00,53.1,47.1,30.21,East,90,0.0,3.4,80,0.00,,,0.00,0.00,VWS V14.01,2013-02-27 17:40:00,
2013-02-27 09:45:00,53.8,47.8,30.24,NE,45,1.6,3.4,80,0.00,,,0.00,0.00,VWS V14.01,2013-02-27 17:45:00,
2013-02-27 09:50:00,53.4,47.1,30.24,NNE,22,0.9,4.3,79,0.00,,,0.00,0.00,VWS V14.01,2013-02-27 17:50:00,
2013-02-27 09:55:00,53.1,46.0,30.24,NE,45,4.0,4.3,77,0.00,,,0.00,0.00,VWS V14.01,2013-02-27 17:55:00,
2013-02-27 10:00:00,53.6,46.9,30.24,NE,45,0.0,0.0,78,0.00,,,0.00,0.00,VWS V14.01,2013-02-27 18:00:00,
2013-02-27 10:05:00,54.5,47.5,30.24,ENE,68,0.0,2.7,77,0.00,,,0.00,0.00,VWS V14.01,2013-02-27 18:05:00,
2013-02-27 10:10:00,54.7,47.3,30.24,East,90,2.0,3.1,76,0.00,,,0.00,0.00,VWS V14.01,2013-02-27 18:10:00,
2013-02-27 10:15:00,54.7,47.3,30.24,ESE,112,0.0,0.0,76,0.00,,,0.00,0.00,VWS V14.01,2013-02-27 18:15:00,
2013-02-27 10:20:00,54.7,47.3,30.24,East,90,0.9,3.1,76,0.00,,,0.00,0.00,VWS V14.01,2013-02-27 18:20:00,
2013-02-27 10:25:00,55.9,48.5,30.24,NE,45,2.5,3.1,76,0.00,,,0.00,0.00,VWS V14.01,2013-02-27 18:25:00,
2013-02-27 10:30:00,56.7,48.5,30.21,NE,45,3.4,4.0,74,0.00,,,0.00,0.00,VWS V14.01,2013-02-27 18:30:00,
2013-02-27 10:35:00,56.3,48.1,30.21,NE,45,2.7,4.9,74,0.00,,,0.00,0.00,VWS V14.01,2013-02-27 18:35:00,
2013-02-27 10:40:00,55.9,47.8,30.21,NE,45,4.3,4.9,74,0.00,,,0.00,0.00,VWS V14.01,2013-02-27 18:40:00,
2013-02-27 10:45:00,56.1,48.0,30.24,NE,45,5.6,5.6,74,0.00,,,0.00,0.00,VWS V14.01,2013-02-27 18:45:00,
2013-02-27 10:50:00,56.1,48.7,30.24,NNE,22,1.6,5.6,76,0.00,,,0.00,0.00,VWS V14.01,2013-02-27 18:50:00,
2013-02-27 10:55:00,56.3,48.8,30.24,NE,45,1.1,5.6,76,0.00,,,0.00,0.00,VWS V14.01,2013-02-27 18:55:00,
2013-02-27 11:00:00,57.2,50.1,30.24,ENE,68,2.7,4.3,77,0.00,,,0.00,0.00,VWS V14.01,2013-02-27 19:00:00,
2013-02-27 11:05:00,58.3,51.1,30.24,East,90,2.5,4.3,77,0.00,,,0.00,0.00,VWS V14.01,2013-02-27 19:05:00,
2013-02-27 11:10:00,58.5,50.6,30.24,ENE,68,2.0,4.3,75,0.00,,,0.00,0.00,VWS V14.01,2013-02-27 19:10:00,
2013-02-27 11:15:00,62.1,45.7,30.21,NNE,22,4.0,5.6,55,0.00,,,0.00,0.00,VWS V14.01,2013-02-27 19:15:00,
2013-02-27 11:16:00,58.6,50.4,30.24,NNE,22,0.9,2.9,74,0.00,,,0.00,0.00,VWS V14.01,2013-02-27 19:16:00,
2013-02-27 11:21:00,58.8,50.2,30.24,ENE,68,2.5,3.8,73,0.00,,,0.00,0.00,VWS V14.01,2013-02-27 19:21:00,
2013-02-27 11:26:00,59.0,48.9,30.24,NE,45,2.0,4.0,69,0.00,,,0.00,0.00,VWS V14.01,2013-02-27 19:26:00,
2013-02-27 11:30:00,62.2,43.4,30.21,NE,45,3.8,6.3,50,0.00,,,0.00,0.00,VWS V14.01,2013-02-27 19:30:00,
2013-02-27 11:31:00,59.4,47.6,30.21,NE,45,2.0,4.9,65,0.00,,,0.00,0.00,VWS V14.01,2013-02-27 19:31:00,
2013-02-27 11:36:00,59.7,47.5,30.21,NNE,22,2.0,4.9,64,0.00,,,0.00,0.00,VWS V14.01,2013-02-27 19:36:00,
2013-02-27 11:41:00,59.7,45.8,30.21,East,90,2.0,4.9,60,0.00,,,0.00,0.00,VWS V14.01,2013-02-27 19:41:00,
2013-02-27 11:45:00,62.8,43.9,30.21,ENE,68,2.9,5.6,50,0.00,,,0.00,0.00,VWS V14.01,2013-02-27 19:45:00,
2013-02-27 11:46:00,59.9,45.5,30.24,NE,45,1.6,3.4,59,0.00,,,0.00,0.00,VWS V14.01,2013-02-27 19:46:00,
2013-02-27 11:51:00,61.0,46.1,30.24,East,90,4.3,4.3,58,0.00,,,0.00,0.00,VWS V14.01,2013-02-27 19:51:00,
2013-02-27 11:56:00,61.2,45.4,30.24,East,90,3.1,4.3,56,0.00,,,0.00,0.00,VWS V14.01,2013-02-27 19:56:00,
2013-02-27 12:00:00,63.7,45.2,30.21,ENE,68,0.9,4.7,51,0.00,,,0.00,0.00,VWS V14.01,2013-02-27 20:00:00,
2013-02-27 12:01:00,61.9,45.5,30.24,NE,45,3.6,4.7,55,0.00,,,0.00,0.00,VWS V14.01,2013-02-27 20:01:00,
2013-02-27 12:06:00,61.9,46.0,30.24,ENE,68,2.9,4.7,56,0.00,,,0.00,0.00,VWS V14.01,2013-02-27 20:06:00,
2013-02-27 12:11:00,61.7,45.4,30.24,ENE,68,4.9,5.6,55,0.00,,,0.00,0.00,VWS V14.01,2013-02-27 20:11:00,
2013-02-27 12:15:00,63.3,45.4,30.21,South,180,6.0,7.8,52,0.00,,,0.00,0.00,VWS V14.01,2013-02-27 20:15:00,
2013-02-27 12:16:00,62.2,45.9,30.21,NE,45,1.6,4.0,55,0.00,,,0.00,0.00,VWS V14.01,2013-02-27 20:16:00,
2013-02-27 12:21:00,62.8,45.4,30.21,North,0,3.6,6.3,53,0.00,,,0.00,0.00,VWS V14.01,2013-02-27 20:21:00,
2013-02-27 12:26:00,62.6,44.2,30.21,East,90,2.7,6.3,51,0.00,,,0.00,0.00,VWS V14.01,2013-02-27 20:26:00,
2013-02-27 12:30:00,61.2,44.9,30.21,SSW,202,4.3,11.0,55,0.00,,,0.00,0.00,VWS V14.01,2013-02-27 20:30:00,
2013-02-27 12:31:00,62.2,43.9,30.21,NE,45,5.6,5.6,51,0.00,,,0.00,0.00,VWS V14.01,2013-02-27 20:31:00,
2013-02-27 12:36:00,62.8,43.9,30.21,NNE,22,3.1,5.6,50,0.00,,,0.00,0.00,VWS V14.01,2013-02-27 20:36:00,
2013-02-27 12:41:00,62.6,44.2,30.21,East,90,3.4,5.6,51,0.00,,,0.00,0.00,VWS V14.01,2013-02-27 20:41:00,
2013-02-27 12:45:00,62.6,45.7,30.21,SE,135,6.0,7.4,54,0.00,,,0.00,0.00,VWS V14.01,2013-02-27 20:45:00,
2013-02-27 12:46:00,63.0,44.0,30.21,ENE,68,3.8,3.8,50,0.00,,,0.00,0.00,VWS V14.01,2013-02-27 20:46:00,
2013-02-27 12:51:00,63.0,43.5,30.21,ESE,112,1.6,4.0,49,0.00,,,0.00,0.00,VWS V14.01,2013-02-27 20:51:00,
2013-02-27 12:56:00,63.5,45.1,30.21,ENE,68,2.5,4.7,51,0.00,,,0.00,0.00,VWS V14.01,2013-02-27 20:56:00,
2013-02-27 13:00:00,61.7,45.9,30.21,SSW,202,4.3,8.7,56,0.00,,,0.00,0.00,VWS V14.01,2013-02-27 21:00:00,
2013-02-27 13:01:00,64.0,44.5,30.21,East,90,2.9,3.4,49,0.00,,,0.00,0.00,VWS V14.01,2013-02-27 21:01:00,
2013-02-27 13:06:00,64.4,44.8,30.21,WNW,292,0.0,3.4,49,0.00,,,0.00,0.00,VWS V14.01,2013-02-27 21:06:00,
2013-02-27 13:11:00,63.9,45.4,30.21,SSW,202,2.5,7.8,51,0.00,,,0.00,0.00,VWS V14.01,2013-02-27 21:11:00,
2013-02-27 13:15:00,61.5,45.7,30.21,SSW,202,4.3,9.4,56,0.00,,,0.00,0.00,VWS V14.01,2013-02-27 21:15:00,
2013-02-27 13:16:00,62.4,45.1,30.21,SSE,158,3.1,6.5,53,0.00,,,0.00,0.00,VWS V14.01,2013-02-27 21:16:00,
2013-02-27 13:22:00,61.5,45.2,30.21,South,180,1.3,7.6,55,0.00,,,0.00,0.00,VWS V14.01,2013-02-27 21:22:00,
2013-02-27 13:27:00,60.8,44.5,30.21,SSW,202,7.4,11.0,55,0.00,,,0.00,0.00,VWS V14.01,2013-02-27 21:27:00,
2013-02-27 13:30:00,61.5,43.8,30.21,SSE,158,0.9,10.7,52,0.00,,,0.00,0.00,VWS V14.01,2013-02-27 21:30:00,
2013-02-27 13:32:00,61.2,44.9,30.21,SSE,158,4.0,6.0,55,0.00,,,0.00,0.00,VWS V14.01,2013-02-27 21:32:00,
2013-02-27 13:37:00,62.1,45.7,30.21,SW,225,2.0,7.4,55,0.00,,,0.00,0.00,VWS V14.01,2013-02-27 21:37:00,
2013-02-27 13:42:00,62.6,45.7,30.21,SSW,202,3.8,7.4,54,0.00,,,0.00,0.00,VWS V14.01,2013-02-27 21:42:00,
2013-02-27 13:45:00,61.2,41.3,30.18,SW,225,2.5,13.0,48,0.00,,,0.00,0.00,VWS V14.01,2013-02-27 21:45:00,
2013-02-27 13:47:00,62.4,46.1,30.21,South,180,2.9,6.0,55,0.00,,,0.00,0.00,VWS V14.01,2013-02-27 21:47:00,
2013-02-27 13:52:00,62.4,46.5,30.21,South,180,4.0,7.8,56,0.00,,,0.00,0.00,VWS V14.01,2013-02-27 21:52:00,
2013-02-27 13:57:00,62.2,46.4,30.21,SW,225,5.6,8.7,56,0.00,,,0.00,0.00,VWS V14.01,2013-02-27 21:57:00,
2013-02-27 14:00:00,61.0,42.7,30.18,South,180,6.3,11.0,51,0.00,,,0.00,0.00,VWS V14.01,2013-02-27 22:00:00,
2013-02-27 14:02:00,62.1,46.2,30.21,South,180,3.6,4.3,56,0.00,,,0.00,0.00,VWS V14.01,2013-02-27 22:02:00,
2013-02-27 14:07:00,61.9,46.0,30.21,South,180,7.6,7.6,56,0.00,,,0.00,0.00,VWS V14.01,2013-02-27 22:07:00,
2013-02-27 14:12:00,61.7,45.9,30.21,SSE,158,5.6,8.5,56,0.00,,,0.00,0.00,VWS V14.01,2013-02-27 22:12:00,
2013-02-27 14:15:00,61.0,43.2,30.21,SSW,202,7.6,12.3,52,0.00,,,0.00,0.00,VWS V14.01,2013-02-27 22:15:00,
2013-02-27 14:17:00,61.3,45.0,30.21,SSE,158,5.4,7.2,55,0.00,,,0.00,0.00,VWS V14.01,2013-02-27 22:17:00,
2013-02-27 14:22:00,61.3,44.1,30.21,SSW,202,3.1,10.3,53,0.00,,,0.00,0.00,VWS V14.01,2013-02-27 22:22:00,
2013-02-27 14:27:00,61.2,42.9,30.21,SSW,202,6.5,10.7,51,0.00,,,0.00,0.00,VWS V14.01,2013-02-27 22:27:00,
2013-02-27 14:30:00,61.0,41.2,30.18,SW,225,5.4,12.5,48,0.00,,,0.00,0.00,VWS V14.01,2013-02-27 22:30:00,
2013-02-27 14:32:00,61.5,43.2,30.21,SSW,202,5.6,8.7,51,0.00,,,0.00,0.00,VWS V14.01,2013-02-27 22:32:00,
2013-02-27 14:37:00,61.5,42.2,30.21,SSE,158,2.7,12.1,49,0.00,,,0.00,0.00,VWS V14.01,2013-02-27 22:37:00,
2013-02-27 14:42:00,61.3,42.0,30.18,ESE,112,2.7,12.3,49,0.00,,,0.00,0.00,VWS V14.01,2013-02-27 22:42:00,
2013-02-27 14:45:00,60.3,40.0,30.21,South,180,8.7,12.1,47,0.00,,,0.00,0.00,VWS V14.01,2013-02-27 22:45:00,
2013-02-27 14:47:00,61.7,42.4,30.18,SSW,202,3.4,8.7,49,0.00,,,0.00,0.00,VWS V14.01,2013-02-27 22:47:00,
2013-02-27 14:52:00,61.3,42.6,30.18,SW,225,4.3,9.0,50,0.00,,,0.00,0.00,VWS V14.01,2013-02-27 22:52:00,
2013-02-27 14:57:00,61.0,42.7,30.18,SSE,158,7.8,11.0,51,0.00,,,0.00,0.00,VWS V14.01,2013-02-27 22:57:00,
2013-02-27 15:00:00,60.1,38.1,30.18,SSW,202,7.8,13.6,44,0.00,,,0.00,0.00,VWS V14.01,2013-02-27 23:00:00,
2013-02-27 15:02:00,60.8,42.6,30.18,SW,225,11.9,11.9,51,0.00,,,0.00,0.00,VWS V14.01,2013-02-27 23:02:00,
2013-02-27 15:07:00,60.8,43.1,30.18,SSW,202,6.0,11.9,52,0.00,,,0.00,0.00,VWS V14.01,2013-02-27 23:07:00,
2013-02-27 15:12:00,61.0,43.2,30.21,SSW,202,5.4,12.1,52,0.00,,,0.00,0.00,VWS V14.01,2013-02-27 23:12:00,
2013-02-27 15:15:00,59.0,37.1,30.21,SSW,202,12.5,14.5,44,0.00,,,0.00,0.00,VWS V14.01,2013-02-27 23:15:00,
2013-02-27 15:17:00,61.0,43.2,30.21,South,180,6.5,11.9,52,0.00,,,0.00,0.00,VWS V14.01,2013-02-27 23:17:00,
2013-02-27 15:22:00,61.2,42.4,30.21,SSW,202,5.8,12.5,50,0.00,,,0.00,0.00,VWS V14.01,2013-02-27 23:22:00,
2013-02-27 15:27:00,60.8,41.0,30.18,South,180,7.8,12.5,48,0.00,,,0.00,0.00,VWS V14.01,2013-02-27 23:27:00,
2013-02-27 15:30:00,58.5,36.7,30.21,SW,225,6.9,19.5,44,0.00,,,0.00,0.00,VWS V14.01,2013-02-27 23:30:00,
2013-02-27 15:33:00,61.2,40.8,30.18,SSW,202,7.6,7.6,47,0.00,,,0.00,0.00,VWS V14.01,2013-02-27 23:33:00,
2013-02-27 15:38:00,60.4,40.1,30.18,SSE,158,8.7,10.3,47,0.00,,,0.00,0.00,VWS V14.01,2013-02-27 23:38:00,
2013-02-27 15:43:00,60.4,40.1,30.21,SW,225,8.5,11.0,47,0.00,,,0.00,0.00,VWS V14.01,2013-02-27 23:43:00,
2013-02-27 15:45:00,57.9,38.4,30.18,SSW,202,7.6,15.4,48,0.00,,,0.00,0.00,VWS V14.01,2013-02-27 23:45:00,
2013-02-27 15:48:00,60.3,39.4,30.21,SSW,202,5.4,12.8,46,0.00,,,0.00,0.00,VWS V14.01,2013-02-27 23:48:00,
2013-02-27 15:53:00,60.1,38.7,30.21,South,180,10.7,12.8,45,0.00,,,0.00,0.00,VWS V14.01,2013-02-27 23:53:00,
2013-02-27 15:58:00,60.1,38.1,30.18,SSW,202,12.3,13.6,44,0.00,,,0.00,0.00,VWS V14.01,2013-02-27 23:58:00,
2013-02-27 16:00:00,57.2,38.8,30.18,SSE,158,6.0,15.2,50,0.00,,,0.00,0.00,VWS V14.01,2013-02-28 00:00:00,
2013-02-27 16:03:00,59.7,37.8,30.18,SSW,202,5.6,13.2,44,0.00,,,0.00,0.00,VWS V14.01,2013-02-28 00:03:00,
2013-02-27 16:08:00,59.5,37.6,30.18,SSW,202,7.4,14.5,44,0.00,,,0.00,0.00,VWS V14.01,2013-02-28 00:08:00,
2013-02-27 16:13:00,59.2,36.7,30.21,SSW,202,12.3,14.5,43,0.00,,,0.00,0.00,VWS V14.01,2013-02-28 00:13:00,
2013-02-27 16:15:00,54.3,46.2,30.18,South,180,17.2,19.0,74,0.00,,,0.00,0.00,VWS V14.01,2013-02-28 00:15:00,
2013-02-27 16:18:00,58.8,36.4,30.21,SSW,202,13.0,14.8,43,0.00,,,0.00,0.00,VWS V14.01,2013-02-28 00:18:00,
2013-02-27 16:23:00,58.6,36.2,30.21,SSW,202,14.5,19.5,43,0.00,,,0.00,0.00,VWS V14.01,2013-02-28 00:23:00,
2013-02-27 16:28:00,58.5,36.7,30.21,SSE,158,8.1,19.5,44,0.00,,,0.00,0.00,VWS V14.01,2013-02-28 00:28:00,
2013-02-27 16:30:00,54.3,46.6,30.21,SSW,202,8.7,17.2,75,0.00,,,0.00,0.00,VWS V14.01,2013-02-28 00:30:00,
2013-02-27 16:33:00,58.5,36.7,30.21,SSW,202,7.4,14.5,44,0.00,,,0.00,0.00,VWS V14.01,2013-02-28 00:33:00,
2013-02-27 16:38:00,58.5,37.2,30.21,SSE,158,11.4,15.4,45,0.00,,,0.00,0.00,VWS V14.01,2013-02-28 00:38:00,
2013-02-27 16:43:00,58.1,38.0,30.18,SSW,202,7.6,15.4,47,0.00,,,0.00,0.00,VWS V14.01,2013-02-28 00:43:00,
2013-02-27 16:45:00,56.3,45.1,30.21,WNW,292,0.0,12.3,66,0.00,,,0.00,0.00,VWS V14.01,2013-02-28 00:45:00,
2013-02-27 16:48:00,57.7,37.7,30.18,South,180,6.0,15.2,47,0.00,,,0.00,0.00,VWS V14.01,2013-02-28 00:48:00,
2013-02-27 16:53:00,57.4,37.9,30.18,SSE,158,5.8,15.2,48,0.00,,,0.00,0.00,VWS V14.01,2013-02-28 00:53:00,
2013-02-27 16:58:00,57.2,38.8,30.18,SSW,202,6.3,15.2,50,0.00,,,0.00,0.00,VWS V14.01,2013-02-28 00:58:00,
2013-02-27 17:00:00,54.7,44.3,30.21,West,270,0.0,1.6,68,0.00,,,0.00,0.00,VWS V14.01,2013-02-28 01:00:00,
2013-02-27 17:03:00,56.3,42.6,30.18,SSW,202,12.3,16.3,60,0.00,,,0.00,0.00,VWS V14.01,2013-02-28 01:03:00,
2013-02-27 17:08:00,55.2,45.6,30.18,SSW,202,14.3,16.8,70,0.00,,,0.00,0.00,VWS V14.01,2013-02-28 01:08:00,
2013-02-27 17:13:00,54.7,46.6,30.18,SSE,158,10.1,19.0,74,0.00,,,0.00,0.00,VWS V14.01,2013-02-28 01:13:00,
2013-02-27 17:15:00,53.1,44.3,30.21,SW,225,0.0,0.0,72,0.00,,,0.00,0.00,VWS V14.01,2013-02-28 01:15:00,
2013-02-27 17:18:00,54.3,46.2,30.18,SSW,202,10.5,17.2,74,0.00,,,0.00,0.00,VWS V14.01,2013-02-28 01:18:00,
2013-02-27 17:23:00,54.3,46.6,30.18,South,180,9.2,17.2,75,0.00,,,0.00,0.00,VWS V14.01,2013-02-28 01:23:00,
2013-02-27 17:28:00,54.1,46.8,30.21,South,180,12.5,17.2,76,0.00,,,0.00,0.00,VWS V14.01,2013-02-28 01:28:00,
2013-02-27 17:30:00,52.3,44.3,30.24,SSW,202,0.0,2.0,74,0.00,,,0.00,0.00,VWS V14.01,2013-02-28 01:30:00,
2013-02-27 17:33:00,55.0,45.8,30.21,South,180,6.5,12.3,71,0.00,,,0.00,0.00,VWS V14.01,2013-02-28 01:33:00,
2013-02-27 17:38:00,56.5,44.5,30.21,SW,225,4.7,12.3,64,0.00,,,0.00,0.00,VWS V14.01,2013-02-28 01:38:00,
2013-02-27 17:43:00,56.3,44.7,30.21,WNW,292,0.0,12.3,65,0.00,,,0.00,0.00,VWS V14.01,2013-02-28 01:43:00,
2013-02-27 17:45:00,52.2,45.2,30.27,SSW,202,0.0,1.6,77,0.00,,,0.00,0.00,VWS V14.01,2013-02-28 01:45:00,
2013-02-27 17:48:00,56.1,44.5,30.21,WNW,292,0.0,0.0,65,0.00,,,0.00,0.00,VWS V14.01,2013-02-28 01:48:00,
2013-02-27 17:53:00,56.1,44.5,30.21,WNW,292,0.0,0.0,65,0.00,,,0.00,0.00,VWS V14.01,2013-02-28 01:53:00,
2013-02-27 17:58:00,54.7,44.3,30.21,West,270,0.0,1.6,68,0.00,,,0.00,0.00,VWS V14.01,2013-02-28 01:58:00,
2013-02-27 18:00:00,52.0,45.0,30.27,South,180,0.0,2.5,77,0.00,,,0.00,0.00,VWS V14.01,2013-02-28 02:00:00,
2013-02-27 18:03:00,54.3,44.4,30.21,SW,225,0.0,0.0,69,0.00,,,0.00,0.00,VWS V14.01,2013-02-28 02:03:00,
2013-02-27 18:08:00,53.8,44.2,30.21,SW,225,0.0,0.0,70,0.00,,,0.00,0.00,VWS V14.01,2013-02-28 02:08:00,
2013-02-27 18:13:00,53.2,44.5,30.21,SW,225,0.0,0.0,72,0.00,,,0.00,0.00,VWS V14.01,2013-02-28 02:13:00,
2013-02-27 18:15:00,52.0,45.0,30.27,SW,225,0.0,2.9,77,0.00,,,0.00,0.00,VWS V14.01,2013-02-28 02:15:00,
2013-02-27 18:18:00,53.1,44.3,30.21,SW,225,0.0,0.0,72,0.00,,,0.00,0.00,VWS V14.01,2013-02-28 02:18:00,
2013-02-27 18:23:00,52.7,44.3,30.21,SSW,202,1.6,2.0,73,0.00,,,0.00,0.00,VWS V14.01,2013-02-28 02:23:00,
2013-02-27 18:28:00,52.5,44.5,30.24,SSW,202,0.0,2.0,74,0.00,,,0.00,0.00,VWS V14.01,2013-02-28 02:28:00,
2013-02-27 18:30:00,54.3,46.6,30.27,SSE,158,4.9,7.6,75,0.00,,,0.00,0.00,VWS V14.01,2013-02-28 02:30:00,
2013-02-27 18:34:00,52.2,44.1,30.24,SSE,158,0.9,1.6,74,0.00,,,0.00,0.00,VWS V14.01,2013-02-28 02:34:00,
2013-02-27 18:39:00,52.2,44.5,30.24,NNE,22,0.0,1.6,75,0.00,,,0.00,0.00,VWS V14.01,2013-02-28 02:39:00,
2013-02-27 18:44:00,52.0,44.7,30.27,SSW,202,0.0,1.6,76,0.00,,,0.00,0.00,VWS V14.01,2013-02-28 02:44:00,
2013-02-27 18:45:00,54.3,46.6,30.27,SSW,202,4.9,7.6,75,0.00,,,0.00,0.00,VWS V14.01,2013-02-28 02:45:00,
2013-02-27 18:49:00,52.0,44.7,30.27,South,180,0.0,1.1,76,0.00,,,0.00,0.00,VWS V14.01,2013-02-28 02:49:00,
2013-02-27 18:54:00,52.0,44.7,30.27,South,180,2.0,2.5,76,0.00,,,0.00,0.00,VWS V14.01,2013-02-28 02:54:00,
2013-02-27 18:59:00,52.0,45.0,30.27,South,180,1.1,2.5,77,0.00,,,0.00,0.00,VWS V14.01,2013-02-28 02:59:00,
2013-02-27 19:00:00,54.5,46.8,30.27,South,180,4.7,7.2,75,0.00,,,0.00,0.00,VWS V14.01,2013-02-28 03:00:00,
2013-02-27 19:04:00,51.8,44.8,30.27,SSW,202,0.0,2.9,77,0.00,,,0.00,0.00,VWS V14.01,2013-02-28 03:04:00,
2013-02-27 19:09:00,52.0,45.0,30.27,SSW,202,0.0,2.9,77,0.00,,,0.00,0.00,VWS V14.01,2013-02-28 03:09:00,
2013-02-27 19:14:00,52.0,45.0,30.27,SW,225,0.0,2.9,77,0.00,,,0.00,0.00,VWS V14.01,2013-02-28 03:14:00,
2013-02-27 19:15:00,53.8,47.4,30.27,SSW,202,3.1,8.1,79,0.00,,,0.00,0.00,VWS V14.01,2013-02-28 03:15:00,
2013-02-27 19:19:00,52.7,45.4,30.27,SW,225,2.9,3.1,76,0.00,,,0.00,0.00,VWS V14.01,2013-02-28 03:19:00,
2013-02-27 19:24:00,53.6,45.9,30.27,SSW,202,3.1,4.3,75,0.00,,,0.00,0.00,VWS V14.01,2013-02-28 03:24:00,
2013-02-27 19:29:00,54.1,46.4,30.27,SE,135,3.6,4.9,75,0.00,,,0.00,0.00,VWS V14.01,2013-02-28 03:29:00,
2013-02-27 19:30:00,55.0,47.3,30.27,SSW,202,3.4,4.3,75,0.00,,,0.00,0.00,VWS V14.01,2013-02-28 03:30:00,
2013-02-27 19:39:00,54.3,46.6,30.27,SW,225,3.6,7.6,75,0.00,,,0.00,0.00,VWS V14.01,2013-02-28 03:39:00,
2013-02-27 19:44:00,54.3,46.6,30.27,SSW,202,3.4,7.6,75,0.00,,,0.00,0.00,VWS V14.01,2013-02-28 03:44:00,
2013-02-27 19:45:00,56.3,47.4,30.27,SW,225,0.0,5.6,72,0.00,,,0.00,0.00,VWS V14.01,2013-02-28 03:45:00,
2013-02-27 19:49:00,54.7,46.6,30.27,South,180,4.9,6.9,74,0.00,,,0.00,0.00,VWS V14.01,2013-02-28 03:49:00,
2013-02-27 19:54:00,54.7,46.6,30.27,SW,225,0.0,6.9,74,0.00,,,0.00,0.00,VWS V14.01,2013-02-28 03:54:00,
2013-02-27 19:59:00,54.5,46.8,30.27,SSW,202,4.9,7.2,75,0.00,,,0.00,0.00,VWS V14.01,2013-02-28 03:59:00,
2013-02-27 20:00:00,54.3,46.6,30.30,SW,225,0.0,0.0,75,0.00,,,0.00,0.00,VWS V14.01,2013-02-28 04:00:00,
2013-02-27 20:04:00,54.1,47.1,30.27,SSW,202,3.1,8.1,77,0.00,,,0.00,0.00,VWS V14.01,2013-02-28 04:04:00,
2013-02-27 20:09:00,54.1,47.4,30.27,SSW,202,3.8,8.1,78,0.00,,,0.00,0.00,VWS V14.01,2013-02-28 04:09:00,
2013-02-27 20:14:00,53.8,47.4,30.27,SSW,202,2.9,8.1,79,0.00,,,0.00,0.00,VWS V14.01,2013-02-28 04:14:00,
2013-02-27 20:15:00,53.1,46.0,30.30,SW,225,0.0,0.0,77,0.00,,,0.00,0.00,VWS V14.01,2013-02-28 04:15:00,
2013-02-27 20:19:00,54.1,47.4,30.27,SSW,202,2.7,4.3,78,0.00,,,0.00,0.00,VWS V14.01,2013-02-28 04:19:00,
2013-02-27 20:24:00,54.3,47.3,30.27,SSW,202,2.9,4.3,77,0.00,,,0.00,0.00,VWS V14.01,2013-02-28 04:24:00,
2013-02-27 20:29:00,55.0,47.3,30.27,SSW,202,2.5,4.3,75,0.00,,,0.00,0.00,VWS V14.01,2013-02-28 04:29:00,
2013-02-27 20:30:00,52.3,46.0,30.30,SW,225,1.6,2.0,79,0.00,,,0.00,0.00,VWS V14.01,2013-02-28 04:30:00,
2013-02-27 20:35:00,55.8,47.2,30.27,SSW,202,3.4,3.6,73,0.00,,,0.00,0.00,VWS V14.01,2013-02-28 04:35:00,
2013-02-27 20:40:00,56.1,47.2,30.27,South,180,2.5,5.6,72,0.00,,,0.00,0.00,VWS V14.01,2013-02-28 04:40:00,
2013-02-27 20:45:00,56.3,47.4,30.27,SW,225,0.0,5.6,72,0.00,,,0.00,0.00,VWS V14.01,2013-02-28 04:45:00,
2013-02-27 20:50:00,55.6,47.1,30.27,SW,225,0.0,0.0,73,0.00,,,0.00,0.00,VWS V14.01,2013-02-28 04:50:00,
2013-02-27 20:55:00,55.0,46.5,30.27,WNW,292,0.0,0.0,73,0.00,,,0.00,0.00,VWS V14.01,2013-02-28 04:55:00,
2013-02-27 21:00:00,54.3,46.6,30.30,SW,225,0.0,0.0,75,0.00,,,0.00,0.00,VWS V14.01,2013-02-28 05:00:00,
2013-02-27 21:03:00,54.1,46.4,30.30,SW,225,0.0,0.0,75,0.00,,,0.00,0.00,VWS V14.01,2013-02-28 05:03:00,
2013-02-27 21:08:00,53.6,46.2,30.30,SW,225,0.0,0.0,76,0.00,,,0.00,0.00,VWS V14.01,2013-02-28 05:08:00,
2013-02-27 21:13:00,53.2,46.6,30.30,SW,225,0.0,0.0,78,0.00,,,0.00,0.00,VWS V14.01,2013-02-28 05:13:00,
2013-02-27 21:15:00,51.6,46.6,30.33,South,180,1.6,3.8,83,0.00,,,0.00,0.00,VWS V14.01,2013-02-28 05:15:00,
2013-02-27 21:18:00,53.1,46.4,30.30,SW,225,0.0,0.0,78,0.00,,,0.00,0.00,VWS V14.01,2013-02-28 05:18:00,
2013-02-27 21:23:00,52.7,46.0,30.30,SW,225,0.0,0.0,78,0.00,,,0.00,0.00,VWS V14.01,2013-02-28 05:23:00,
2013-02-27 21:28:00,52.3,46.4,30.30,SW,225,0.0,0.0,80,0.00,,,0.00,0.00,VWS V14.01,2013-02-28 05:28:00,
2013-02-27 21:30:00,51.4,46.8,30.36,SSW,202,2.7,3.4,84,0.00,,,0.00,0.00,VWS V14.01,2013-02-28 05:30:00,
2013-02-27 21:33:00,52.2,46.2,30.30,SW,225,1.6,1.6,80,0.00,,,0.00,0.00,VWS V14.01,2013-02-28 05:33:00,
2013-02-27 21:38:00,52.2,46.5,30.30,WSW,248,0.0,2.2,81,0.00,,,0.00,0.00,VWS V14.01,2013-02-28 05:38:00,
2013-02-27 21:43:00,52.0,46.3,30.33,WSW,248,0.0,2.2,81,0.00,,,0.00,0.00,VWS V14.01,2013-02-28 05:43:00,
2013-02-27 21:45:00,51.1,46.7,30.33,South,180,0.0,3.4,85,0.00,,,0.00,0.00,VWS V14.01,2013-02-28 05:45:00,
2013-02-27 21:48:00,51.8,46.2,30.33,South,180,0.0,3.1,81,0.00,,,0.00,0.00,VWS V14.01,2013-02-28 05:48:00,
2013-02-27 21:53:00,51.8,46.5,30.33,South,180,0.0,3.1,82,0.00,,,0.00,0.00,VWS V14.01,2013-02-28 05:53:00,
2013-02-27 21:58:00,51.8,46.2,30.33,SW,225,0.0,3.1,81,0.00,,,0.00,0.00,VWS V14.01,2013-02-28 05:58:00,
2013-02-27 22:00:00,50.7,46.1,30.33,West,270,0.0,3.1,84,0.00,,,0.00,0.00,VWS V14.01,2013-02-28 06:00:00,
2013-02-27 22:03:00,51.6,46.3,30.33,SW,225,0.0,1.6,82,0.00,,,0.00,0.00,VWS V14.01,2013-02-28 06:03:00,
2013-02-27 22:08:00,51.4,46.5,30.33,SSW,202,3.1,3.8,83,0.00,,,0.00,0.00,VWS V14.01,2013-02-28 06:08:00,
2013-02-27 22:13:00,51.6,46.3,30.33,WSW,248,0.0,3.8,82,0.00,,,0.00,0.00,VWS V14.01,2013-02-28 06:13:00,
2013-02-27 22:15:00,50.5,46.5,30.33,SW,225,0.0,3.1,86,0.00,,,0.00,0.00,VWS V14.01,2013-02-28 06:15:00,
2013-02-27 22:18:00,51.6,46.3,30.33,South,180,0.9,1.6,82,0.00,,,0.00,0.00,VWS V14.01,2013-02-28 06:18:00,
2013-02-27 22:23:00,51.6,46.6,30.33,South,180,0.0,2.0,83,0.00,,,0.00,0.00,VWS V14.01,2013-02-28 06:23:00,
2013-02-27 22:28:00,51.4,46.8,30.36,SSW,202,3.4,3.4,84,0.00,,,0.00,0.00,VWS V14.01,2013-02-28 06:28:00,
2013-02-27 22:30:00,50.0,46.6,30.33,SW,225,0.0,2.9,88,0.00,,,0.00,0.00,VWS V14.01,2013-02-28 06:30:00,
2013-02-27 22:33:00,51.4,46.5,30.36,SSW,202,1.1,2.7,83,0.00,,,0.00,0.00,VWS V14.01,2013-02-28 06:33:00,
2013-02-27 22:38:00,51.1,46.4,30.36,South,180,0.0,2.9,84,0.00,,,0.00,0.00,VWS V14.01,2013-02-28 06:38:00,
2013-02-27 22:43:00,51.1,46.7,30.33,South,180,2.0,3.4,85,0.00,,,0.00,0.00,VWS V14.01,2013-02-28 06:43:00,
2013-02-27 22:45:00,49.8,46.7,30.33,SW,225,2.7,2.7,89,0.00,,,0.00,0.00,VWS V14.01,2013-02-28 06:45:00,
2013-02-27 22:48:00,51.1,46.4,30.33,WSW,248,0.0,0.0,84,0.00,,,0.00,0.00,VWS V14.01,2013-02-28 06:48:00,
2013-02-27 22:53:00,50.9,46.6,30.33,SW,225,0.0,3.1,85,0.00,,,0.00,0.00,VWS V14.01,2013-02-28 06:53:00,
2013-02-27 22:58:00,50.7,46.4,30.33,WNW,292,0.0,3.1,85,0.00,,,0.00,0.00,VWS V14.01,2013-02-28 06:58:00,
2013-02-27 23:00:00,49.5,46.7,30.33,South,180,0.0,2.7,90,0.00,,,0.00,0.00,VWS V14.01,2013-02-28 07:00:00,
2013-02-27 23:03:00,50.5,46.5,30.33,WSW,248,0.0,2.5,86,0.00,,,0.00,0.00,VWS V14.01,2013-02-28 07:03:00,
2013-02-27 23:08:00,50.7,46.7,30.33,SE,135,0.0,3.1,86,0.00,,,0.00,0.00,VWS V14.01,2013-02-28 07:08:00,
2013-02-27 23:13:00,50.5,46.5,30.33,SE,135,0.0,3.1,86,0.00,,,0.00,0.00,VWS V14.01,2013-02-28 07:13:00,
2013-02-27 23:15:00,49.3,46.8,30.33,South,180,0.0,0.0,91,0.00,,,0.00,0.00,VWS V14.01,2013-02-28 07:15:00,
2013-02-27 23:18:00,50.2,46.5,30.33,SW,225,0.0,0.0,87,0.00,,,0.00,0.00,VWS V14.01,2013-02-28 07:18:00,
2013-02-27 23:23:00,50.2,46.5,30.33,SW,225,0.0,2.9,87,0.00,,,0.00,0.00,VWS V14.01,2013-02-28 07:23:00,
2013-02-27 23:28:00,50.0,46.6,30.33,SW,225,1.1,2.9,88,0.00,,,0.00,0.00,VWS V14.01,2013-02-28 07:28:00,
2013-02-27 23:30:00,49.3,46.8,30.33,South,180,0.0,0.0,91,0.00,,,0.00,0.00,VWS V14.01,2013-02-28 07:30:00,
2013-02-27 23:33:00,50.0,46.6,30.33,SW,225,0.0,0.0,88,0.00,,,0.00,0.00,VWS V14.01,2013-02-28 07:33:00,
2013-02-27 23:38:00,49.8,46.4,30.33,SSW,202,0.0,2.7,88,0.00,,,0.00,0.00,VWS V14.01,2013-02-28 07:38:00,
2013-02-27 23:43:00,49.8,46.4,30.33,South,180,2.5,2.7,88,0.00,,,0.00,0.00,VWS V14.01,2013-02-28 07:43:00,
2013-02-27 23:45:00,49.5,47.2,30.33,South,180,0.0,0.0,92,0.00,,,0.00,0.00,VWS V14.01,2013-02-28 07:45:00,
2013-02-27 23:48:00,49.8,47.0,30.33,South,180,0.9,2.7,90,0.00,,,0.00,0.00,VWS V14.01,2013-02-28 07:48:00,
2013-02-27 23:53:00,49.8,46.7,30.33,SSW,202,0.0,2.7,89,0.00,,,0.00,0.00,VWS V14.01,2013-02-28 07:53:00,
2013-02-27 23:58:00,49.6,46.5,30.33,SSW,202,0.0,2.7,89,0.00,,,0.00,0.00,VWS V14.01,2013-02-28 07:58:00,